Weather History for Orlando International, FL

Change the Weather History Date:

Saturday, October 13, 2012

  Actual Average Record
Temperature  
Mean Temperature 77 °F 76 °F  
Max Temperature 85 °F 85 °F 92 °F (1985)
Min Temperature 68 °F 67 °F 54 °F (1905)
Degree Days  
Heating Degree Days 0 0  
Month to date heating degree days 0 0  
Since 1 July heating degree days 0 0  
Cooling Degree Days 12 11  
Month to date cooling degree days 190 165  
Year to date cooling degree days 3280 3041  
Growing Degree Days 26 (Base 50)    
Moisture  
Dew Point 65 °F    
Average Humidity 69    
Maximum Humidity 90    
Minimum Humidity 48    
Precipitation  
Precipitation 0.00 in 0.10 in 2.63 in (1894)
Month to date precipitation 1.87 1.71  
Year to date precipitation 39.23 44.38  
Sea Level Pressure  
Sea Level Pressure 30.15 in    
Wind  
Wind Speed 11 mph (NE)    
Max Wind Speed 22 mph    
Max Gust Speed 28 mph    
Visibility 10 miles    
Events      
T = Trace of Precipitation, MM = Missing Value Source: NWS Daily Summary

Daily Weather History Graph

Daily Weather History Graph

Search for Another Location

Airport:

Trip Planner

Search our weather history database for the weather conditions in past years. The results will help you decide how hot, cold, wet, or windy it might be!

Date:

Astronomy

Oct. 13, 2012 Rise Set
Actual Time 7:25 AM EDT 6:57 PM EDT
Civil Twilight 7:01 AM EDT 7:20 PM EDT
Nautical Twilight 6:33 AM EDT 7:48 PM EDT
Astronomical Twilight 6:06 AM EDT 8:15 PM EDT
Moon 5:21 AM EDT (10/13) 5:35 PM EDT (10/13)
Length of Visible Light 12h 19m
Length of Day
11h 32m
Waning Crescent, 5% of the Moon is Illuminated
Oct 13
Waning Crescent
Oct 15
New
Oct 21
First Quarter
Oct 29
Full
Nov 6
Last Quarter

Hourly Weather History & Observations

Time (EDT) Temp. Heat Index Dew Point Humidity Pressure Visibility Wind Dir Wind Speed Gust Speed Precip Events Conditions
12:53 AM 71.1 °F - 64.0 °F 78% 30.17 in 10.0 mi NNE 8.1 mph - N/A   Clear
1:53 AM 69.1 °F - 64.9 °F 87% 30.16 in 10.0 mi North 5.8 mph - N/A   Clear
2:53 AM 68.0 °F - 64.9 °F 90% 30.14 in 10.0 mi North 5.8 mph - N/A   Clear
3:53 AM 68.0 °F - 64.9 °F 90% 30.13 in 10.0 mi North 5.8 mph - N/A   Clear
4:53 AM 68.0 °F - 64.9 °F 90% 30.13 in 10.0 mi North 5.8 mph - N/A   Partly Cloudy
5:53 AM 69.1 °F - 66.0 °F 90% 30.14 in 10.0 mi North 6.9 mph - N/A   Scattered Clouds
6:53 AM 71.1 °F - 64.9 °F 81% 30.16 in 10.0 mi North 10.4 mph - N/A   Mostly Cloudy
7:53 AM 70.0 °F - 64.9 °F 84% 30.17 in 10.0 mi NNE 8.1 mph - N/A   Scattered Clouds
8:53 AM 75.0 °F - 66.0 °F 73% 30.18 in 10.0 mi NE 8.1 mph - N/A   Scattered Clouds
9:53 AM 79.0 °F - 64.9 °F 62% 30.19 in 10.0 mi NE 12.7 mph - N/A   Scattered Clouds
10:53 AM 82.0 °F 83.4 °F 64.0 °F 54% 30.19 in 10.0 mi NE 19.6 mph 24.2 mph N/A   Mostly Cloudy
11:53 AM 82.0 °F 83.8 °F 64.9 °F 56% 30.19 in 10.0 mi NE 17.3 mph - N/A   Mostly Cloudy
12:53 PM 82.0 °F 83.8 °F 64.9 °F 56% 30.17 in 10.0 mi NE 17.3 mph - N/A   Mostly Cloudy
1:53 PM 82.0 °F 83.1 °F 63.0 °F 52% 30.15 in 10.0 mi ENE 16.1 mph 24.2 mph N/A   Mostly Cloudy
2:53 PM 84.0 °F 84.9 °F 63.0 °F 49% 30.13 in 10.0 mi ENE 15.0 mph 21.9 mph N/A   Mostly Cloudy
3:53 PM 84.0 °F 84.5 °F 62.1 °F 47% 30.12 in 10.0 mi ENE 12.7 mph 23.0 mph N/A   Scattered Clouds
4:53 PM 82.9 °F 84.0 °F 63.0 °F 51% 30.12 in 10.0 mi ENE 17.3 mph - N/A   Scattered Clouds
5:53 PM 81.0 °F 82.5 °F 64.0 °F 56% 30.12 in 10.0 mi ENE 15.0 mph 24.2 mph N/A   Scattered Clouds
6:53 PM 78.1 °F - 64.9 °F 64% 30.12 in 10.0 mi NE 11.5 mph - N/A   Partly Cloudy
7:53 PM 77.0 °F - 66.0 °F 69% 30.14 in 10.0 mi NE 9.2 mph - N/A   Partly Cloudy
8:53 PM 75.0 °F - 66.0 °F 73% 30.15 in 10.0 mi NNE 8.1 mph - N/A   Clear
9:53 PM 73.9 °F - 66.0 °F 76% 30.16 in 10.0 mi NE 8.1 mph - N/A   Partly Cloudy
10:53 PM 73.9 °F - 66.0 °F 76% 30.15 in 10.0 mi NE 9.2 mph - N/A   Partly Cloudy
11:53 PM 73.0 °F - 66.9 °F 81% 30.14 in 10.0 mi NNE 5.8 mph - N/A   Clear